THORAD AGENA D DEB, 19667

Orbit data source: Space-Track

THORAD AGENA D DEB, 19667 is space debris in SSO originally from a launch on Wed, 08 Apr 1970 UTC launched from the Air Force Western Test Range (AFWTR). Debris objects in space refer to the collection of defunct objects orbiting the Earth. Examples of debris include non-operational satellites, rocket bodies, and fragments generated from explosions, collisions, or faulty payload assembly.

Loading next visibility...
Identifier
19667, 1970-025QC
Orbit
SSO
Country
Flag of USUS
Related business
Manufacturer
Unknown
Mission
Spacecraft
Bus & Motor
Unknown
Mass
Unknown
Launch date (UTC)
1970-04-08 (56 years ago)
Launch vehicle
Unknown
Launch site
Air Force Western Test Range (AFWTR)
Object type
Payload
Rocket body
Debris
Shape & HBR
Unknown shape, 0.1 m
Radar Cross Section
Medium (>0.1 m² and <1 m²)

Expand to show TLE details & history
Last TLE update: 16 hours ago

TLE from 16 hours ago
0 THORAD AGENA D DEB
1 19667U 70025QC  26236.67752517  .00000291  00000-0  10297-2 0  9995
2 19667  99.7393 134.8940 0340214 340.3515  45.3977 12.86338977790662
Epoch: 2026-08-24T16:15Z
TLE epoch observation values (Epoch: 2026-08-24T16:15:38.174Z)
Latitude
28.20288°
Longitude
-87.22488°
Altitude
1,140.225 km
Speed
7.369 km/s
True Right ascension
08h 38m 33s
True Declination
28° 04' 02"
Sunlit
Object was in daylight at epoch
Visualization orbit readout
Latitude
Unknown
Longitude
Unknown
Altitude
Unknown
Speed
Unknown
Apparent Right ascension
Unknown
Apparent Declination
Unknown
Sunlit
N/A
Visualization observer readout
Local Sidereal Time
23:03:21
Azimuth
Unknown
Elevation
Unknown
Doppler factor
Unknown
Orbital elements
Apogee altitude
1,575.152 km
Perigee altitude
1,051.793 km
Semi-major axis
7,691.61 km
Eccentricity
0.03402
Inclination
99.7393°
RAAN
134.894°
Arg. of periapsis
340.3515°
True anomaly
48.25761°
Mean anomaly
45.3977°
Eccentric anomaly
46.81911°
Mean motion
3.21749 °/min
Orbital period
111.89 mins
BSTAR
0.0010297

Documentation

Showing up to 5 results
|